Location: Val-d'Or
(48.1170°N, 77.7670°W)
Time: 02:24:49
(UTC-04:00)

ISS - Pass Details

Date: 18 May 2018
Orbit: 402 x 407 km, 51.6° (Epoch: 26 May)

Event Time Altitude Azimuth Distance (km) Brightness Sun altitude
Exits shadow 01:58:46 35° 306° (NW) 666 -2.6 -21.4°
Maximum altitude 01:59:39 46° 352° (N) 551 -2.8 -21.3°
Drops below altitude 10° 02:02:49 10° 67° (ENE) 1,458 -0.6 -21.2°
Sets 02:04:57 0° 74° (ENE) 2,318 0.4 -21.1°
